THOR ABLESTAR DEB, 5826

Orbit data source: Space-Track

THOR ABLESTAR DEB, 5826 is space debris in LEO originally from a launch on Thu, 29 Jun 1961 UTC launched from the Air Force Eastern Test Range (AFETR). Debris objects in space refer to the collection of defunct objects orbiting the Earth. Examples of debris include non-operational satellites, rocket bodies, and fragments generated from explosions, collisions, or faulty payload assembly.

Loading next visibility...
Identifier
5826, 1961-015KE
Orbit
LEO
Country
Flag of USUS
Related business
Manufacturer
Unknown
Mission
Spacecraft
Bus & Motor
Unknown
Mass
Unknown
Launch date (UTC)
1961-06-29 (65 years ago)
Launch vehicle
Unknown
Launch site
Air Force Eastern Test Range (AFETR)
Object type
Payload
Rocket body
Debris
Shape & HBR
Unknown shape, 0.1 m
Radar Cross Section
Small (<0.1 m²)

Expand to show TLE details & history
Last TLE update: 8 hours ago

TLE from 8 hours ago
0 THOR ABLESTAR DEB
1  5826U 61015KE  26100.46730932  .00000585  00000-0  45860-3 0  9991
2  5826  66.6771 121.1739 0081372 303.7745  55.5603 13.97491401261260
Epoch: 2026-04-10T11:12Z
TLE epoch observation values (Epoch: 2026-04-10T11:12:55.525Z)
Latitude
-0.00007°
Longitude
114.24197°
Altitude
871.39 km
Speed
7.434 km/s
True Right ascension
08h 04m 41s
True Declination
0° 00' 00"
Sunlit
Object was in daylight at epoch
Visualization orbit readout
Latitude
Unknown
Longitude
Unknown
Altitude
Unknown
Speed
Unknown
Apparent Right ascension
Unknown
Apparent Declination
Unknown
Sunlit
N/A
Visualization observer readout
Local Sidereal Time
01:23:49
Azimuth
Unknown
Elevation
Unknown
Doppler factor
Unknown
Orbital elements
Apogee altitude
960.128 km
Perigee altitude
841.666 km
Semi-major axis
7,279.034 km
Eccentricity
0.00814
Inclination
66.6771°
RAAN
121.1739°
Arg. of periapsis
303.7745°
True anomaly
56.33374°
Mean anomaly
55.5603°
Eccentric anomaly
55.94658°
Mean motion
3.49488 °/min
Orbital period
103.01 mins
BSTAR
0.0004586
Loading maneuver chart data...
Computing Atmospheric mass density...

Documentation

Showing up to 5 results
|